Location: Capelle
(50.3413°N, 1.9974°E)
Time: 14:49:03
(UTC+00:00)

USA 215 - Pass Details

Date: 12 January 2026
Orbit: 1098 x 1109 km, 123.0° (Epoch: 10 January)

Event Time Altitude Azimuth Distance (km) Brightness Sun altitude
Exits shadow 18:10:45 28° 77° (ENE) 1,959 4.0 -18.0°
Maximum altitude 18:14:05 50° 137° (SE) 1,384 3.6 -18.5°
Drops below altitude 10° 18:20:22 10° 212° (SSW) 2,950 6.1 -19.5°
Sets 18:22:56 0° 217° (SW) 3,904 6.9 -19.9°
